Vorticity
nan nan nan nan nan nan nan nan nan nan nan nan nan nan nan nan nan nan nan nan nan nan
nan 9 8 9 9 9 9 9 7 8 7 8 9 9 10 8 9 9 9 8 9 nan
nan 9 9 8 8 8 9 8 8 7 8 8 7 9 10 9 9 10 10 9 9 nan
nan 8 8 8 9 8 8 8 8 8 8 8 9 9 10 9 9 10 9 9 8 nan
nan 8 8 8 8 9 8 9 9 8 9 8 7 9 9 9 9 10 9 9 9 nan
nan 10 9 9 8 9 8 8 8 9 8 8 9 9 9 9 8 9 9 9 9 nan
nan 9 9 9 9 9 9 9 8 9 9 9 9 9 7 9 9 8 8 9 8 nan
nan 9 9 11 9 9 9 9 9 9 8 8 7 6 13 10 8 9 9 9 8 nan
nan 12 9 9 10 10 10 10 10 9 10 8 7 6 10 15 14 8 8 9 9 nan
nan 9 11 14 11 8 10 9 6 8 10 11 9 7 7 13 14 10 8 9 10 nan
nan 9 7 8 12 10 9 9 9 9 7 8 8 8 7 7 9 7 8 8 11 nan
nan 9 10 9 8 8 8 9 8 9 10 9 8 9 7 9 10 7 7 5 8 nan
nan 10 10 10 8 8 9 9 10 9 9 9 8 9 8 13 12 9 7 8 4 nan
nan nan nan nan nan nan nan nan nan nan nan nan nan nan nan nan nan nan nan nan nan nan
CAPE
0 0 0 0 0 0 0 0 0 0 0 0 0 0 0 0 0 0 0 0 0 0
0 0 0 0 0 0 0 0 0 0 0 0 0 0 0 0 0 0 0 0 0 0
0 0 0 0 0 0 0 0 0 0 0 0 0 0 0 0 0 0 0 0 0 0
0 0 0 0 0 0 0 0 0 0 0 0 0 0 0 0 0 0 0 0 0 0
0 0 0 0 0 0 0 0 0 0 0 0 0 0 0 0 0 0 0 0 0 0
0 0 0 0 0 0 0 0 0 0 0 0 0 0 0 0 0 0 0 0 0 0
0 0 0 0 0 0 0 0 0 0 0 0 0 0 0 0 0 0 0 0 1 1
0 0 0 0 0 0 0 0 0 0 0 0 0 0 0 0 0 0 0 0 0 3
0 1 0 0 0 0 0 0 0 0 0 0 0 0 0 0 0 0 1 1 2 4
1 1 0 0 0 1 1 1 4 1 4 4 3 0 0 0 7 8 10 9 9 9
4 2 1 1 2 6 6 18 16 9 22 8 7 0 0 0 15 11 13 14 8 10
2 4 8 3 7 17 19 12 13 12 3 10 8 0 0 0 16 10 10 9 2 5
3 6 4 10 16 21 31 13 16 4 14 10 8 0 0 0 13 10 15 8 10 0
4 5 6 11 22 21 14 14 13 12 9 22 8 2 0 0 12 13 12 13 13 9